Погода в Григорьевке

Россия / Красноярский край     53°13′27″N   92°50′39″E
темп.,
°C
ветер,
м/с
пор.,
м/с
влажн.,
%
обл.,
%
осадки,
мм/ч
давл.,
гПа
погр.,
м
24 января, пн
пн2401:00−23зюз11100100 0.1 10379
04:00−22з00100100 0.0 103615
07:00−22зюз11100100 0.1 103712
10:00−20ссз0097100 0.0 103859
13:00−15зсз1189100 0.1 1038238
16:00−14з119177 0.0 1038196
19:00−20ссв0010068 0.0 10419
22:00−21ю1110089 0.0 10429
25 января, вт
вт2501:00−21в1110076 0.1 104110
04:00−23в1110070 0.0 10409
07:00−24вюв1110057 0.0 10409
10:00−21вюв009752 0.0 103931
13:00−13с118497 0.0 1035172
16:00−12ссз0092100 0.0 103430
19:00−18ю0099100 0.0 10349
22:00−18ю1198100 0.0 103511
26 января, ср
ср2601:00−17в0098100 0.0 103510
04:00−18вюв119797 0.0 10359
07:00−19юв119899 0.0 10359
10:00−16в1189100 0.0 103436
13:00−11всв117692 0.0 1032215
16:00−10с1190100 0.0 103130
19:00−16ю1197100 0.0 103310
22:00−16ююв1196100 0.0 103410
27 января, чт
чт2701:00−17юв1196100 0.0 103410
04:00−20ю0098100 0.0 10359
07:00−20юв0097100 0.0 10369
10:00−17з1189100 0.0 103847
13:00−12с0075100 0.0 1037196
16:00−12с1185100 0.0 103760
19:00−18ююз1197100 0.0 10399
22:00−19ююв1098100 0.0 10409
28 января, пт
пт2801:00−20юв0098100 0.0 10409
04:00−20в1198100 0.0 104010
07:00−22в1198100 0.0 10429
10:00−19в119191 0.0 104232
13:00−13св11775 0.0 1040207
16:00−13ссв11845 0.0 103964
19:00−21ююв01995 0.0 10419
22:00−24юв1110014 0.0 10429